Location: Ailly
(50.0793°N, 1.9944°E)
Time: 06:20:23
(UTC+00:00)

USA 234 - Pass Details

Date: 15 January 2026
Orbit: 1102 x 1106 km, 123.0° (Epoch: 4 January)

Event Time Altitude Azimuth Distance (km) Brightness Sun altitude
Rises 06:54:05 0° 56° (ENE) 3,934 6.7 -8.0°
Reaches altitude 10° 06:56:36 10° 59° (ENE) 2,973 6.1 -7.7°
Maximum altitude 07:03:08 67° 142° (SE) 1,190 3.8 -6.7°
Drops below altitude 10° 07:09:39 10° 225° (SW) 2,960 5.3 -5.8°
Sets 07:12:09 0° 228° (SW) 3,914 5.9 -5.4°
